[[{"header":{"parameterUnit":"m.s-1","parameterCategory":1,"la1":30.2991,"la2":30.254,"lo1":-89.0895,"lo2":-89.0444,"dy":0.0017,"dx":0.0017,"nx":28,"ny":28,"refTime":"2024-06-18T21:00:00:Z","depth":0,"parameterNumber":2,"parameterNumberName":"U-component_of_WINDS"},"data":[0,0,0,0,0,0,0,0,0,0,0,0,0,0,0,0,0,0,0,0,0,0,0,0,0,0,0,0,0,0,0,0,0,0,0,0,0,0,0,0,0,0,0,0,0,0,0,0,0,0,0,0,0,0,0,0,0,0,-7.4396,-7.4396,0,-7.4393,-7.4393,-7.4393,-7.4155,-7.4149,-7.4143,-7.4137,-7.4136,-7.4142,-7.4148,0,0,0,0,0,0,0,0,0,0,0,0,0,-7.4198,-7.4203,-7.4396,-7.4396,-7.4396,-7.4393,-7.4393,-7.4393,-7.4156,-7.4149,-7.4141,-7.4134,-7.4135,-7.4141,-7.4148,0,0,0,0,0,0,0,0,0,0,0,0,0,-7.4249,-7.4205,-7.4396,-7.4277,-7.4267,-7.4393,-7.4393,-7.4392,-7.4158,-7.4149,-7.4139,-7.4131,-7.4132,-7.4141,-7.4149,-7.4389,0,0,-7.4176,-7.4179,0,0,0,0,0,0,0,0,-7.4246,-7.4256,-7.4295,-7.4286,-7.4274,-7.4265,-7.4322,-7.4391,-7.416,-7.4199,-7.4137,-7.4126,-7.4187,-7.419,-7.421,-7.4389,-7.4389,-7.4176,-7.4182,-7.4185,-7.4188,0,0,0,0,0,0,0,-7.4243,-7.4255,-7.4394,-7.4296,-7.4283,-7.4225,-7.4222,-7.4335,-7.4245,-7.4195,-7.4178,-7.4181,-7.4179,-7.4203,-7.4209,-7.4389,-7.4176,-7.4184,-7.4189,-7.4193,-7.4762,-7.4771,0,0,0,0,0,0,-7.4256,-7.4254,-7.4394,-7.4394,-7.4237,-7.4236,-7.4232,-7.4277,-7.4243,-7.4229,-7.4189,-7.417,-7.4192,-7.4199,-7.4208,-7.4483,-7.4185,-7.4193,-7.4198,-7.4752,-7.4764,-7.4775,0,0,0,0,0,0,-7.4252,-7.427,-7.4395,-7.4319,-7.4331,-7.4249,-7.4301,-7.4282,-7.4305,-7.4238,-7.4222,-7.4229,-7.4185,-7.4195,-7.4345,-7.448,-7.4197,-7.4205,-7.474,-7.4755,-7.4769,-7.5039,0,0,0,0,0,0,-7.4248,-7.4271,-7.4361,-7.4323,-7.4336,-7.4532,-7.431,-7.4289,-7.432,-7.4295,-7.4271,-7.4259,-7.4179,-7.4333,-7.4354,-7.4487,-7.4212,-7.4727,-7.4747,-7.4764,-7.5018,-7.5062,-7.5099,0,0,0,0,0,-7.4241,-7.4438,-7.4366,-7.4385,-7.4446,-7.4541,-7.4548,-7.4451,-7.4332,-7.4421,-7.4379,-7.4259,-7.4463,-7.4351,-7.4371,-7.451,-7.4718,-7.4741,-7.4763,-7.5,-7.5053,-7.5098,0,0,0,0,0,0,-7.4494,-7.4431,-7.4351,-7.4541,-7.4548,-7.45,-7.461,-7.4511,-7.4552,-7.4527,-7.4407,-7.4403,-7.4572,-7.4556,-7.4432,-7.4739,-7.4569,-7.4597,-7.4742,-7.4792,-7.4832,-7.4831,-7.4219,0,0,0,0,0,-7.4572,-7.4653,-7.4594,-7.4767,-7.4775,-7.4693,-7.473,-7.4655,-7.4658,-7.466,-7.4628,-7.4636,-7.47,-7.4746,-7.4803,-7.5016,-7.5006,-7.5121,-7.5162,-7.5195,-7.522,-7.5329,-7.5378,-7.4848,-7.4848,-7.4847,0,0,-7.4734,-7.4709,-7.4768,-7.4818,-7.4814,-7.49,-7.4697,-7.4798,-7.486,-7.4675,-7.4813,-7.4791,-7.4791,-7.4973,-7.5051,-7.4965,-7.5364,-7.5224,-7.5251,-7.5257,-7.5357,-7.5407,-7.5452,-7.4863,-7.486,-7.4858,0,0,-7.5071,-7.5063,-7.5204,-7.5205,-7.5202,-7.5146,-7.5181,-7.5148,-7.5125,-7.5262,-7.5124,-7.5198,-7.5314,-7.5319,-7.5337,-7.5678,-7.5568,-7.57,-7.5911,-7.6018,-7.606,-7.6096,-7.6215,-7.626,-7.5725,-7.5726,-7.5726,0,-7.5273,-7.5397,-7.529,-7.54,-7.5425,-7.5261,-7.5403,-7.5409,-7.5426,-7.5447,-7.535,-7.549,-7.548,-7.5659,-7.5742,-7.5763,-7.5798,-7.57,-7.6063,-7.6098,-7.6131,-7.6242,-7.6288,-7.5741,-7.574,-7.5738,-7.5736,0,-7.5643,-7.5732,-7.5847,-7.5865,-7.5904,-7.603,-7.5943,-7.5995,-7.5917,-7.5872,-7.6013,-7.5994,-7.6043,-7.6081,-7.6007,-7.625,-7.6196,-7.6084,-7.591,-7.6199,-7.6302,-7.6344,-7.5764,-7.5758,-7.5754,-7.575,0,0,-7.6138,-7.6096,-7.614,-7.6145,-7.613,-7.6196,-7.6315,-7.6362,-7.6408,-7.6426,-7.6521,-7.6623,-7.6518,-7.6538,-7.6464,-7.6559,-7.6827,-7.6434,-7.6432,-7.6505,-7.7091,-7.7174,-7.7225,-7.6756,-7.6764,-7.677,-7.709,0,-7.6463,-7.6661,-7.6568,-7.6777,-7.6857,-7.6702,-7.6805,-7.6808,-7.6769,-7.6831,-7.6789,-7.6861,-7.6719,-7.673,-7.6818,-7.6776,-7.6942,-7.6752,-7.6842,-7.6847,-7.6843,-7.7279,-7.7367,-7.767,-7.713,-7.7137,-7.7142,0,-7.6867,-7.69,-7.7116,-7.7085,-7.7115,-7.7209,-7.7243,-7.7306,-7.7305,-7.727,-7.7294,-7.7197,-7.7311,-7.7142,-7.7296,-7.7169,-7.7201,-7.7186,-7.7196,-7.7198,-7.701,-7.7291,-7.7765,-7.781,-7.7205,-7.72,-7.7195,0,-7.7203,-7.7302,-7.7442,-7.7453,-7.7421,-7.749,-7.748,-7.747,-7.7504,-7.7535,-7.7555,-7.7601,-7.7625,-7.7662,-7.758,-7.7465,-7.7746,-7.757,-7.7719,-7.7721,-7.7782,-7.7779,-7.8265,-7.7809,-7.7809,-7.7808,-7.7807,0,-7.7573,-7.7711,-7.7592,-7.768,-7.7829,-7.7722,-7.7874,-7.7847,-7.784,-7.7919,-7.779,-7.7867,-7.7755,-7.7821,-7.7759,-7.7895,-7.7908,-7.7882,-7.7863,-7.7892,-7.7895,-7.7909,-7.7884,-7.782,-7.7817,-7.7815,-7.7813,0,-7.7972,-7.7898,-7.8042,-7.8,-7.7992,-7.8104,-7.8068,-7.8147,-7.8099,-7.8201,-7.8219,-7.8145,-7.8216,-7.8139,-7.8205,-7.8162,-7.8346,-7.8298,-7.8346,-7.8331,-7.8482,-7.8468,-7.8992,-7.9054,-7.8562,-7.8567,-7.8571,0,-7.8211,-7.8313,-7.8281,-7.8324,-7.8322,-7.8393,-7.8426,-7.8326,-7.8366,-7.8373,-7.8451,-7.8511,-7.8553,-7.8675,-7.8627,-7.8677,-7.8627,-7.8807,-7.8633,-7.8658,-7.8626,-7.8619,-7.8628,-7.8842,-7.8848,-7.8852,-7.8856,0,-7.8642,-7.8601,-7.8653,-7.8693,-7.8736,-7.8764,-7.8781,-7.8824,-7.8719,-7.8771,-7.8841,-7.8875,-7.8941,-7.9002,-7.9038,-7.9028,-7.8926,-7.8912,-7.8948,-7.8977,-7.8999,-7.8986,-7.8439,-7.8899,-7.8895,-7.8892,-7.889,-7.8888,-7.8966,-7.9049,-7.9039,-7.9101,-7.9103,-7.9123,-7.9193,-7.9155,-7.9212,-7.9257,-7.9195,-7.9282,-7.9278,-7.9316,-7.9318,-7.9385,-7.9308,-7.9362,-7.9374,-7.9388,-7.941,-7.8992,-7.9391,-7.939,-7.9389,-7.9388,-7.9387,0,-7.9388,-7.9374,-7.9433,-7.946,-7.9509,-7.9408,-7.9422,-7.947,-7.9548,-7.9553,-7.9597,-7.9678,-7.9736,-7.9694,-7.9743,-7.9805,-7.9759,-7.9821,-7.9813,-7.9812,-7.9477,-7.9439,-7.9857,-7.9857,-7.9857,-7.9857,-7.9857,-7.9856,-7.9613,-7.9746,-7.9704,-7.9838,-7.9822,-7.9906,-7.9922,-7.9939,-7.9942,-8.0037,-8.0085,-8.0057,-8.0043,-8.0089,-8.0139,-8.0125,-8.0148,-8.0226,-8.0196,-7.9883,-7.9836,-7.9792,-7.9755,-8.0233,-8.0234,-8.0524,-8.0527,-8.0529]},{"header":{"parameterUnit":"m.s-1","parameterCategory":1,"la1":30.2991,"la2":30.254,"lo1":-89.0895,"lo2":-89.0444,"dy":0.0017,"dx":0.0017,"nx":28,"ny":28,"refTime":"2024-06-18T21:00:00:Z","depth":0,"parameterNumber":3,"parameterNumberName":"V-component_of_WINDS"},"data":[0,0,0,0,0,0,0,0,0,0,0,0,0,0,0,0,0,0,0,0,0,0,0,0,0,0,0,0,0,0,0,0,0,0,0,0,0,0,0,0,0,0,0,0,0,0,0,0,0,0,0,0,0,0,0,0,0,0,1.1438,1.1437,0,1.1374,1.1373,1.1372,1.1254,1.1252,1.1249,1.1247,1.1184,1.1184,1.1185,0,0,0,0,0,0,0,0,0,0,0,0,0,1.1461,1.1462,1.1438,1.1437,1.1437,1.1374,1.1373,1.1372,1.1254,1.1251,1.1249,1.1246,1.1184,1.1184,1.1185,0,0,0,0,0,0,0,0,0,0,0,0,0,1.143,1.1462,1.1438,1.137,1.1363,1.1374,1.1373,1.1372,1.1255,1.1251,1.1248,1.1245,1.1183,1.1184,1.1185,1.1258,0,0,1.1187,1.1187,0,0,0,0,0,0,0,0,1.1432,1.1429,1.1381,1.1375,1.1367,1.1318,1.1358,1.1334,1.1256,1.1296,1.1247,1.1243,1.1231,1.1228,1.1224,1.1255,1.1252,1.1187,1.1187,1.1188,1.1188,0,0,0,0,0,0,0,1.1434,1.1431,1.1413,1.138,1.1372,1.1344,1.1335,1.1353,1.1284,1.1292,1.1284,1.1277,1.1227,1.1223,1.1221,1.1251,1.1187,1.1187,1.1188,1.1188,1.1339,1.1342,0,0,0,0,0,0,1.1446,1.1434,1.1415,1.1411,1.1392,1.1346,1.1337,1.1338,1.1283,1.1272,1.128,1.1272,1.1224,1.1221,1.1219,1.13,1.1188,1.1188,1.1189,1.1335,1.134,1.1344,0,0,0,0,0,0,1.1447,1.1445,1.1417,1.142,1.1414,1.1349,1.1351,1.1338,1.1334,1.1274,1.1262,1.1289,1.1221,1.1218,1.1249,1.1296,1.1188,1.1189,1.1331,1.1337,1.1342,1.1465,0,0,0,0,0,0,1.1448,1.1446,1.1473,1.1421,1.1414,1.1448,1.1354,1.1339,1.1335,1.1324,1.1279,1.1268,1.1218,1.1248,1.1249,1.1295,1.119,1.1327,1.1334,1.134,1.1456,1.1474,1.1489,0,0,0,0,0,1.1449,1.151,1.1475,1.1473,1.1446,1.1451,1.1447,1.1387,1.1339,1.1366,1.1328,1.127,1.1291,1.1253,1.1253,1.13,1.1323,1.1332,1.134,1.1449,1.147,1.1488,0,0,0,0,0,0,1.157,1.1502,1.1462,1.1508,1.1486,1.1431,1.1463,1.1412,1.1404,1.1394,1.132,1.1311,1.1352,1.1329,1.1287,1.1368,1.1298,1.1307,1.1381,1.1401,1.1417,1.1422,1.119,0,0,0,0,0,1.1602,1.1611,1.1552,1.1598,1.1589,1.1528,1.1528,1.1484,1.1459,1.1449,1.1413,1.1391,1.1393,1.1396,1.1394,1.1452,1.1441,1.1485,1.1501,1.1515,1.1523,1.1553,1.1571,1.137,1.137,1.137,0,0,1.1668,1.1632,1.1643,1.1622,1.1599,1.1611,1.1521,1.1538,1.1546,1.1452,1.1478,1.1452,1.1423,1.1468,1.1486,1.145,1.1576,1.1525,1.1536,1.1537,1.1563,1.1582,1.1599,1.1376,1.1375,1.1374,0,0,1.1795,1.1769,1.1804,1.1784,1.1751,1.171,1.1719,1.1672,1.165,1.1676,1.1605,1.1615,1.1619,1.1601,1.1593,1.1714,1.166,1.1715,1.18,1.183,1.1846,1.186,1.1903,1.1919,1.1724,1.1724,1.1724,0,1.1881,1.1896,1.183,1.185,1.1843,1.1758,1.1794,1.1778,1.1747,1.1745,1.1704,1.1708,1.1683,1.1723,1.1752,1.1748,1.1756,1.172,1.1849,1.1862,1.1874,1.1914,1.1931,1.1731,1.173,1.1729,1.1729,0,1.2004,1.2015,1.2048,1.2019,1.2016,1.2045,1.1984,1.1989,1.1946,1.1909,1.1937,1.1903,1.1893,1.19,1.1857,1.1934,1.1913,1.1862,1.1791,1.1901,1.1938,1.1953,1.1741,1.1738,1.1736,1.1734,0,0,1.2205,1.2139,1.2152,1.2138,1.2096,1.2104,1.2129,1.2119,1.2125,1.2106,1.2126,1.2132,1.2085,1.2075,1.203,1.2056,1.2155,1.2002,1.2,1.2032,1.2238,1.2276,1.2295,1.2119,1.2122,1.2124,1.224,0,1.2322,1.236,1.2302,1.2354,1.2364,1.2283,1.2305,1.2282,1.2249,1.2253,1.2217,1.2222,1.2159,1.2153,1.2175,1.2138,1.2195,1.2129,1.2137,1.2138,1.2147,1.2314,1.2355,1.2467,1.2254,1.2256,1.2258,0,1.2465,1.2453,1.2506,1.246,1.2462,1.2483,1.2469,1.2473,1.2446,1.242,1.241,1.2357,1.2379,1.231,1.234,1.2297,1.2297,1.2279,1.2282,1.2281,1.2205,1.2318,1.2501,1.2518,1.228,1.2278,1.2277,0,1.2606,1.2603,1.2634,1.2625,1.2573,1.259,1.2569,1.2538,1.2536,1.2524,1.2521,1.2513,1.2508,1.2503,1.2449,1.2404,1.2486,1.2413,1.2466,1.2468,1.2487,1.2487,1.2673,1.2487,1.2487,1.2487,1.2486,0,1.2744,1.278,1.2697,1.2717,1.2755,1.2687,1.2727,1.2698,1.2672,1.2684,1.2614,1.2628,1.2556,1.2562,1.252,1.2552,1.255,1.253,1.2519,1.2537,1.254,1.2536,1.2527,1.2491,1.249,1.2489,1.2488,0,1.2908,1.2855,1.2883,1.2832,1.282,1.285,1.2806,1.2822,1.2784,1.2802,1.2802,1.2744,1.2747,1.2693,1.2686,1.2658,1.2709,1.2683,1.2718,1.271,1.2766,1.2762,1.2957,1.2979,1.278,1.2782,1.2783,0,1.3,1.3025,1.2976,1.2979,1.2962,1.2968,1.2965,1.29,1.29,1.2871,1.2892,1.2889,1.2884,1.2894,1.2852,1.2846,1.282,1.2889,1.2819,1.2837,1.2822,1.2821,1.2824,1.2904,1.2907,1.2909,1.291,0,1.3168,1.314,1.3138,1.3127,1.3126,1.3114,1.3098,1.3105,1.3034,1.3038,1.3041,1.3037,1.303,1.3029,1.3015,1.2995,1.2942,1.2933,1.2945,1.2963,1.2982,1.2973,1.2758,1.2928,1.2927,1.2925,1.2924,1.2924,1.3299,1.3318,1.3286,1.3286,1.3267,1.3254,1.3267,1.3231,1.3232,1.322,1.3182,1.3192,1.3164,1.314,1.3125,1.3131,1.3098,1.3115,1.312,1.3125,1.3136,1.2981,1.3129,1.3128,1.3128,1.3127,1.3127,0,1.3464,1.3439,1.344,1.342,1.342,1.3369,1.3349,1.3353,1.3362,1.334,1.3336,1.334,1.3339,1.3296,1.329,1.3304,1.3279,1.3304,1.3303,1.3299,1.3166,1.3156,1.3324,1.3324,1.3324,1.3324,1.3324,1.3324,1.3549,1.3579,1.3548,1.3567,1.3542,1.3551,1.3544,1.3531,1.3514,1.352,1.3519,1.3491,1.3461,1.3452,1.3449,1.3436,1.3438,1.3471,1.3451,1.3328,1.3308,1.329,1.3281,1.3472,1.3472,1.3583,1.3584,1.3585]}]]